AirNav   Pilot Hours Calculator
 
 1482 users online  

2AK0 Mac Kenzie Country Airpark
Point MacKenzie, Alaska, USA

GOING TO POINT MACKENZIE?


FAA INFORMATION EFFECTIVE 01 DECEMBER 2022

Location

FAA Identifier: 2AK0
Lat/Long: 61-15-21.1700N 149-58-28.7600W
61-15.352833N 149-58.479333W
61.2558806,-149.9746556
(estimated)
Elevation: 120 ft. / 37 m
Time zone: UTC -9 (UTC -8 during Daylight Saving Time)
Zip code: 99687

Airport Operations

Airport use: Private use. Permission required prior to landing
Activation date: 04/2004
Control tower: no
ARTCC: ANCHORAGE CENTER
FSS: KENAI FLIGHT SERVICE STATION [907-283-7211]
Attendance: UNATNDD
Segmented circle: no

Airport Communications

CTAF: 122.9
WX ASOS at LHD (4 nm S): PHONE 907-245-5432
WX ASOS at MRI (5 nm SE): 124.25 (907-271-5277)
WX ASOS at ANC (5 nm S): PHONE 907-271-5278
WX ASOS at FRN (9 nm E): 134.25
WX AWOS-3P at BCV (17 nm NE): 135.55 (907-688-0826)

Nearby radio navigation aids

VOR radial/distance  VOR name  Freq  Var
TEDr337/5.3ANCHORAGE VOR/DME113.1518E
BGQr162/18.8BIG LAKE VORTAC112.5019E

Airport Services

Runway Information

Runway 16/34

Dimensions: 1400 x 60 ft. / 427 x 18 m
Surface: dirt
RUNWAY 16  RUNWAY 34
Traffic pattern: leftleft

Airport Ownership and Management from official FAA records

Ownership: Privately-owned
Owner: ELINOR JONES-ELG
BOX 610
AGUILA, AZ 85320-0610
Phone 907-243-7733
Manager: ELINOR JONES-ELG
BOX 610
AGUILA, AZ 85320-0610
Phone 928-671-2882

Airport Operational Statistics

Aircraft based on the field: 1
Single engine airplanes: 1
    

Additional Remarks

SOFT AT SPRING THAW.
RY NOT PLOWED IN WINTER.
TREES & BRUSH ALONG BOTH SIDES OF RY.

Instrument Procedures

There are no published instrument procedures at 2AK0.

Some nearby airports with instrument procedures:

PAMR - Merrill Field Airport (5 nm SE)
PAED - Elmendorf Air Force Base (5 nm E)
PANC - Ted Stevens Anchorage International Airport (5 nm S)
PAFR - Bryant Army Airfield Heliport (9 nm E)
PAGQ - Big Lake Airport (17 nm N)
 
Loc | Ops | Rwys | IFR | FBO | Links
Com | Nav | Svcs | Stats | Notes

Crowley Maritime Corporation
 
Area around 2AK0 (Mac Kenzie Country Airpark)
 
Road maps at: MapQuest Bing Google
 
Aerial photo
No photo
 
Sectional chart

 
Airport distance calculator
Flying to Mac Kenzie Country Airpark? Find the distance to fly.

From to 2AK0

Sunrise and sunset
Times for 08-Dec-2022
 Local
(UTC-9)
 Zulu
(UTC)
Morning civil twilight09:0118:01
Sunrise10:0119:01
Sunset15:4300:43
Evening civil twilight16:4301:43

Current date and time
Zulu (UTC)  08-Dec-2022 14:39:50
Local (UTC-9)  08-Dec-2022 05:39:50
 
METAR
PAMR 
4nm SE 
081353Z 08003KT 10SM CLR M09/M13 A2946 RMK AO2 SLP978 I1000 T10941128
PALH 
4nm S 
081353Z AUTO 17004KT 10SM CLR M10/M12 A2947 RMK AO2 SLP980 T11001117 TSNO
PAED 
5nm E 
081355Z 00000KT 10SM SCT100 M08/M12 A2944 RMK AO2A SLP968 T10841122 $
PANC 
5nm S 
081353Z 00000KT 10SM SCT110 M06/M12 A2946 RMK AO2 SLP978 T10561122
PAFR 
9nm E 
081355Z AUTO 00000KT 10SM BKN055 M11/M12 A2941 RMK AO2 SLP970 T11071125 VISNO RWY35 CHINO RWY35 $
PABV 
16nm NE 
081356Z AUTO VRB05KT 10SM FEW090 M04/M10 A2946 RMK AO2 SLP985 T10441100 FZRANO
TAF
PAED 
5nm E 
081400Z 0814/0920 03007KT 9999 FEW060 SCT100 QNH2943INS BECMG 0900/0901 04009KT 9999 FEW100 QNH2947INS TXM08/0814Z TNM15/0914Z
PANC 
5nm S 
081120Z 0812/0918 VRB06KT P6SM OVC100 FM090000 VRB06KT P6SM SKC
NOTAMs
Click for the latest NOTAMs
NOTAMs are issued by the DoD/FAA and will open in a separate window not controlled by AirNav.

 

 
 

Would you like to see your business listed on this page?

 If your business provides an interesting product or service to pilots, flight crews, aircraft, or users of the Mac Kenzie Country Airpark, you should consider listing it here.  To start the listing process, click on the button below
 
Add a business
 

Other Pages about Mac Kenzie Country Airpark

Update a link
 
Copyright © AirNav, LLC. All rights reserved. Privacy Policy  Contact